LEIBLFKB

Guest
Details From LEIB - Ibiza
To LFKB - Bastia Poretta
Flight Number -
Tags decoded
Created
Modified
Stats Distance 445 nm / 825 km
Max Altitude 0 ft / 0 m
Waypoints 5
Social Downloads 5
Likes 0
Share VATSIM

Download

Looking for another format? Having issues loading an existing format? Contact us
Advertisement - Login to hide

Notes

Requested: LEIB PTC AJO LIBLO LFKB

Route

LEIB PTC AJO LIBLO LFKB

ID Type Via Altitude (ft/m) Position (lat/lon) Dist (leg/tot) Name
O LEIB APT - 0 / 0 38.87287 / 1.37304 - / 0 nm Ibiza
PTC NDB - 0 / 0 39.42732 / 3.25672 93 / 93 nm PORTO COLOM LOM
AJO VOR - 0 / 0 41.77053 / 8.77467 288 / 382 nm AJACCIO VOR-DME
LIBLO FIX - 0 / 0 42.25111 / 8.82833 28 / 411 nm
O LFKB APT - 0 / 0 42.55251 / 9.48371 34 / 445 nm Bastia Poretta

Altitude Profile

Advertisement - Login to hide

Weather


0- 5 10 15 20 25 30 35+ Temperature / °C

Clouds and Precipitation
Forecast for 2019-03-23 00:00 UTC. Updated 5 hours ago

Ground ~20,000 ft ~40,000 ft Winds

LEIB

Details ICAO LEIB (IBZ)
Name Ibiza
Region Spain
Timezone Europe/Madrid (UTC+1.0)
Stats Elevation 20 ft / 6 m (AMSL)
Location 38.872900° 1.373100°
Runways 1
Magnetic Variation 0.800° E

METAR

LEIB 230200Z AUTO 03004KT CAVOK 13/11 Q1025

Decode

TAF

TAF LEIB 230200Z 2303/2403 02006KT 9999 FEW030 TX18/2312Z TN08/2306Z PROB30 TEMPO 2303/2308 4000 BR BKN008 BECMG 2308/2310 08009KT BECMG 2319/2321 VRB03KT

Decode

Departure Runways

ID Width Length Bearing (true/mag) Surface Threshold Overrun Markings Lighting
06 148 ft / 45 m 9,196 ft / 2,803 m 61.99° / 61.19° ASPHALT 0 ft / 0 m 177 ft / 54 m APP CENTERLINE EDGE THRESHOLD MALS
24 148 ft / 45 m 9,196 ft / 2,803 m 242.01° / 241.21° ASPHALT 0 ft / 0 m 197 ft / 60 m PREC-APP CENTERLINE EDGE THRESHOLD CALVERT

LFKB

Details ICAO LFKB (BIA)
Name Bastia Poretta
Region France
Timezone Europe/Paris (UTC+1.0)
Stats Elevation 24 ft / 7 m (AMSL)
Location 42.552600° 9.483750°
Runways 1
Magnetic Variation 2.622° E

METAR

LFKB 230200Z AUTO 22005KT CAVOK 08/03 Q1023 NOSIG

Decode

TAF

TAF LFKB 222000Z 2221/2321 22004KT CAVOK TX19/2313Z TN07/2304Z BECMG 2308/2310 04010KT

Decode

Destination Runways

ID Width Length Bearing (true/mag) Surface Threshold Overrun Markings Lighting
16 148 ft / 45 m 8,273 ft / 2,522 m 162.83° / 160.21° ASPHALT 0 ft / 0 m 102 ft / 31 m APP CENTERLINE EDGE THRESHOLD TDZ REIL-OMNI
34 148 ft / 45 m 8,273 ft / 2,522 m 342.84° / 340.22° ASPHALT 0 ft / 0 m 0 ft / 0 m PREC-APP CENTERLINE EDGE THRESHOLD TDZ REIL-OMNI

Approach Navaids

Runway Type Ident Frequency Range Bearing (true/mag) Slope Elevation
34 GS BP 111.35 MHz 27 nm / 50 km 343.62° / 341.00 ° 3.00° 25 ft / 8 m (AMSL)
34 DME BP 111.35 MHz 18 nm / 33 km - - 69 ft / 21 m (AMSL)
34 LOC-ILS BP 111.35 MHz 27 nm / 50 km 342.81° / 340.19 ° - 25 ft / 8 m (AMSL)

Popular Alternatives